Location: Poigny-la-Forêt
(48.6876°N, 1.7701°E)
Time: 19:38:29
(UTC+02:00)

ISS - Pass Details

Date: 27 May 2019
Orbit: 408 x 418 km, 51.6° (Epoch: 18 June)

Event Time Altitude Azimuth Distance (km) Brightness Sun altitude
Rises 00:07:39 0° 289° (WNW) 2,360 0.7 -16.5°
Reaches altitude 10° 00:09:45 10° 291° (WNW) 1,497 -0.3 -16.6°
Maximum altitude 00:13:06 76° 17° (NNE) 435 -3.7 -16.8°
Enters shadow 00:14:35 31° 100° (E) 768 -2.7 -16.9°
